[[{"header":{"parameterUnit":"m.s-1","parameterCategory":2,"la1":30.2991,"la2":30.254,"lo1":-89.0895,"lo2":-89.0444,"dy":0.0017,"dx":0.0017,"nx":28,"ny":28,"refTime":"2024-05-26T03:00:00:Z","depth":"0","parameterNumber":2,"parameterNumberName":"U-component_of_CURRENTS"},"data":[0,0,0,0,0,0,0,0,0,0,0,0,0,0,0,0,0,0,0,0,0,0,0,0,0,0,0,0,0,0,0,0,0,0,0,0,0,0,0,0,0,0,0,0,0,0,0,0,0,0,0,0,0,0,0,0,0,0,0.1263,0.1264,0,0.1287,0.1287,0.1287,0.1287,0.1287,0.1287,0.1287,0.1289,0.1289,0.1289,0,0,0,0,0,0,0,0,0,0,0,0,0,0.1205,0.1206,0.1263,0.1264,0.1264,0.1287,0.1287,0.1287,0.1287,0.1287,0.1287,0.1287,0.1289,0.1289,0.1289,0,0,0,0,0,0,0,0,0,0,0,0,0,0.1228,0.1206,0.1263,0.1268,0.1269,0.1287,0.1287,0.1287,0.1287,0.1287,0.1287,0.1287,0.1289,0.1289,0.1289,0.1296,0,0,0.129,0.129,0,0,0,0,0,0,0,0,0.1227,0.123,0.1267,0.1268,0.1269,0.1285,0.1267,0.1289,0.1288,0.1279,0.1287,0.1287,0.1287,0.1287,0.129,0.1296,0.1296,0.129,0.129,0.129,0.129,0,0,0,0,0,0,0,0.1225,0.1229,0.1271,0.1268,0.1269,0.1264,0.1267,0.1271,0.1282,0.128,0.128,0.1285,0.1287,0.129,0.129,0.1296,0.129,0.129,0.1291,0.1291,0.1299,0.1299,0,0,0,0,0,0,0.1226,0.1228,0.127,0.1272,0.1248,0.1266,0.1269,0.1279,0.1283,0.1284,0.1285,0.1285,0.129,0.129,0.129,0.1293,0.129,0.1291,0.1291,0.1299,0.1299,0.13,0,0,0,0,0,0,0.1225,0.123,0.1269,0.1251,0.1256,0.1267,0.1278,0.128,0.1286,0.1288,0.1288,0.1291,0.1289,0.129,0.1295,0.1293,0.1291,0.1291,0.1299,0.1299,0.1299,0.1302,0,0,0,0,0,0,0.1223,0.123,0.1238,0.1251,0.1257,0.1285,0.1279,0.128,0.129,0.129,0.1292,0.1292,0.1289,0.1295,0.1295,0.1294,0.1291,0.1299,0.1299,0.1299,0.1302,0.1302,0.1302,0,0,0,0,0,0.1221,0.1236,0.1238,0.1243,0.1268,0.1285,0.1288,0.1294,0.1291,0.1297,0.1296,0.1292,0.1296,0.1295,0.1296,0.1294,0.1299,0.1299,0.1299,0.1302,0.1302,0.1302,0,0,0,0,0,0,0.1215,0.1238,0.1241,0.1262,0.1274,0.1286,0.1295,0.1297,0.1302,0.1301,0.1297,0.1297,0.13,0.1299,0.1298,0.1297,0.1296,0.1296,0.1297,0.1297,0.1298,0.1331,0.1291,0,0,0,0,0,0.1218,0.1236,0.1252,0.1269,0.1276,0.1285,0.1293,0.1297,0.1304,0.1306,0.1304,0.1302,0.1301,0.1301,0.1302,0.1304,0.1391,0.1302,0.1302,0.1303,0.133,0.1473,0.1491,0.13,0.13,0.13,0,0,0.1221,0.1236,0.1246,0.1269,0.1279,0.1285,0.1289,0.1305,0.1304,0.1305,0.1303,0.1307,0.1303,0.1304,0.1304,0.1302,0.1403,0.1303,0.1303,0.1331,0.1476,0.1495,0.1512,0.13,0.13,0.13,0,0,0.123,0.1249,0.1262,0.1272,0.129,0.1293,0.1298,0.131,0.131,0.1315,0.1311,0.1319,0.1314,0.1314,0.1312,0.1317,0.1403,0.1309,0.1336,0.1474,0.1492,0.1509,0.1656,0.1686,0.1307,0.1307,0.1307,0,0.1229,0.1249,0.1268,0.1277,0.1285,0.1295,0.1301,0.1302,0.1312,0.1329,0.1315,0.1348,0.1321,0.1348,0.1332,0.1319,0.1431,0.1332,0.148,0.1498,0.1516,0.1662,0.1695,0.1307,0.1307,0.1307,0.1307,0,0.1245,0.1256,0.1266,0.1278,0.1288,0.13,0.1303,0.1314,0.1316,0.1331,0.1369,0.1361,0.1401,0.1367,0.1341,0.1435,0.1486,0.147,0.1487,0.1536,0.1685,0.172,0.1307,0.1307,0.1307,0.1307,0,0,0.1251,0.1271,0.1273,0.1282,0.129,0.1306,0.1306,0.133,0.1375,0.1374,0.1455,0.1407,0.1454,0.1456,0.1445,0.1519,0.1701,0.1545,0.1552,0.1707,0.2053,0.2058,0.2097,0.1736,0.1742,0.1747,0.2113,0,0.1253,0.1268,0.1277,0.1291,0.1299,0.1312,0.1325,0.1352,0.139,0.1474,0.1488,0.1559,0.1475,0.1528,0.1588,0.1687,0.1793,0.1606,0.1969,0.198,0.1993,0.2137,0.2086,0.2406,0.2147,0.2153,0.2157,0,0.1261,0.1273,0.1285,0.1314,0.1322,0.1338,0.1403,0.1421,0.1521,0.1567,0.1653,0.1709,0.1809,0.1747,0.1974,0.1877,0.1975,0.2036,0.2052,0.2086,0.2051,0.2312,0.248,0.2372,0.2212,0.2207,0.2203,0,0.1259,0.1279,0.1292,0.1299,0.1332,0.1358,0.1385,0.1462,0.1524,0.1676,0.1789,0.1903,0.2025,0.2151,0.224,0.2164,0.2522,0.244,0.2543,0.2545,0.2586,0.2582,0.2707,0.2644,0.2643,0.2642,0.2641,0,0.1257,0.1266,0.1304,0.1313,0.1355,0.1385,0.1474,0.1514,0.1661,0.1787,0.1869,0.2029,0.2142,0.2331,0.2381,0.2596,0.266,0.2613,0.2661,0.2582,0.2573,0.2544,0.2454,0.2656,0.2653,0.265,0.2648,0,0.1251,0.1261,0.1285,0.1335,0.1352,0.1395,0.1509,0.161,0.173,0.1924,0.1999,0.2211,0.2468,0.2576,0.2819,0.2811,0.2911,0.3028,0.2924,0.295,0.2895,0.2806,0.2916,0.283,0.3243,0.3245,0.3247,0,0.1252,0.1268,0.1307,0.134,0.1367,0.1443,0.1519,0.1624,0.1754,0.203,0.2156,0.2454,0.2641,0.2999,0.3091,0.3274,0.3079,0.3294,0.3097,0.2947,0.2886,0.2686,0.2588,0.3174,0.3175,0.3176,0.3177,0,0.1293,0.1307,0.1345,0.1404,0.1473,0.1538,0.1661,0.1753,0.1928,0.21,0.2372,0.2545,0.2896,0.3073,0.3285,0.3356,0.3119,0.3322,0.3219,0.2906,0.2654,0.2574,0.287,0.3188,0.3187,0.3186,0.3185,0.3185,0.1362,0.1394,0.1469,0.1515,0.1575,0.166,0.1712,0.1869,0.2046,0.2275,0.2461,0.2683,0.2952,0.326,0.331,0.3348,0.324,0.325,0.3188,0.3023,0.2826,0.3138,0.3447,0.3448,0.3448,0.3448,0.3449,0,0.1491,0.1533,0.159,0.1647,0.1708,0.1719,0.1841,0.1894,0.2062,0.2276,0.2474,0.2783,0.2968,0.3133,0.3292,0.3209,0.3017,0.3115,0.2816,0.2748,0.3125,0.2999,0.3159,0.3159,0.316,0.316,0.316,0.316,0.1588,0.1675,0.1681,0.1787,0.1807,0.1869,0.191,0.1965,0.208,0.2279,0.2446,0.2614,0.2873,0.3072,0.3064,0.3009,0.2737,0.2666,0.2579,0.282,0.2824,0.2828,0.2689,0.2782,0.2781,0.2109,0.2103,0.21]},{"header":{"parameterUnit":"m.s-1","parameterCategory":2,"la1":30.2991,"la2":30.254,"lo1":-89.0895,"lo2":-89.0444,"dy":0.0017,"dx":0.0017,"nx":28,"ny":28,"refTime":"2024-05-26T03:00:00:Z","depth":"0","parameterNumber":3,"parameterNumberName":"V-component_of_CURRENTS"},"data":[0,0,0,0,0,0,0,0,0,0,0,0,0,0,0,0,0,0,0,0,0,0,0,0,0,0,0,0,0,0,0,0,0,0,0,0,0,0,0,0,0,0,0,0,0,0,0,0,0,0,0,0,0,0,0,0,0,0,-0.0027,-0.0028,0,-0.0096,-0.0096,-0.0097,-0.0116,-0.0116,-0.0115,-0.0115,-0.0186,-0.0189,-0.0191,0,0,0,0,0,0,0,0,0,0,0,0,0,0.0066,0.0064,-0.0027,-0.0028,-0.0029,-0.0095,-0.0096,-0.0097,-0.0116,-0.0116,-0.0115,-0.0115,-0.0186,-0.0188,-0.0191,0,0,0,0,0,0,0,0,0,0,0,0,0,0.0014,0.0064,-0.0027,-0.0046,-0.0048,-0.0095,-0.0096,-0.0098,-0.0116,-0.0116,-0.0115,-0.0114,-0.0185,-0.0188,-0.0192,-0.0225,0,0,-0.0202,-0.0204,0,0,0,0,0,0,0,0,0.0017,0.0011,-0.0042,-0.0045,-0.0047,-0.0096,-0.009,-0.014,-0.0116,-0.009,-0.0115,-0.0114,-0.0157,-0.0163,-0.0177,-0.0228,-0.0231,-0.0202,-0.0204,-0.0206,-0.0207,0,0,0,0,0,0,0,0.0021,0.0013,-0.0054,-0.0043,-0.0046,-0.0059,-0.0065,-0.01,-0.0126,-0.0093,-0.0094,-0.0102,-0.0158,-0.0174,-0.0179,-0.0232,-0.0202,-0.0205,-0.0207,-0.0209,-0.0298,-0.0298,0,0,0,0,0,0,0.003,0.0017,-0.0052,-0.0056,-0.0013,-0.0061,-0.0068,-0.0081,-0.0126,-0.0132,-0.0102,-0.0102,-0.0168,-0.0175,-0.0182,-0.0218,-0.0206,-0.0209,-0.0211,-0.0297,-0.0298,-0.0298,0,0,0,0,0,0,0.0032,0.0024,-0.0049,-0.0021,-0.0031,-0.0063,-0.0078,-0.0083,-0.0098,-0.0133,-0.0139,-0.0111,-0.0168,-0.0177,-0.0213,-0.0221,-0.0211,-0.0214,-0.0297,-0.0298,-0.0298,-0.0295,0,0,0,0,0,0,0.0035,0.0025,0.0016,-0.002,-0.0032,-0.0079,-0.0079,-0.0085,-0.0104,-0.0105,-0.0144,-0.015,-0.0168,-0.0208,-0.0217,-0.0225,-0.0216,-0.0297,-0.0297,-0.0298,-0.0294,-0.0295,-0.0295,0,0,0,0,0,0.0038,0.0019,0.0016,0.0007,-0.0043,-0.0079,-0.0087,-0.0107,-0.0105,-0.0117,-0.014,-0.0148,-0.0217,-0.0212,-0.0221,-0.0231,-0.0296,-0.0297,-0.0298,-0.0294,-0.0295,-0.0295,0,0,0,0,0,0,0.0049,0.0014,0.001,-0.002,-0.0045,-0.0082,-0.0099,-0.0108,-0.0137,-0.0137,-0.0162,-0.017,-0.0203,-0.0219,-0.0212,-0.0257,-0.0255,-0.0258,-0.0248,-0.0249,-0.025,-0.0204,-0.0219,0,0,0,0,0,0.005,0.0027,-0.0004,-0.0028,-0.004,-0.0067,-0.0084,-0.0097,-0.0126,-0.0137,-0.0163,-0.0188,-0.0215,-0.0232,-0.026,-0.0293,-0.0252,-0.0302,-0.0302,-0.0302,-0.0271,-0.021,-0.02,-0.03,-0.03,-0.03,0,0,0.0046,0.0024,0.0011,-0.0026,-0.0048,-0.0071,-0.0076,-0.0104,-0.012,-0.0142,-0.0173,-0.0195,-0.0224,-0.0257,-0.0272,-0.0271,-0.0258,-0.0303,-0.0304,-0.0271,-0.0209,-0.0199,-0.019,-0.0301,-0.0301,-0.0301,0,0,0.003,0.0011,-0.0009,-0.0029,-0.0059,-0.0078,-0.0083,-0.0118,-0.0129,-0.0163,-0.0176,-0.0195,-0.0249,-0.0261,-0.0276,-0.0295,-0.0263,-0.0311,-0.0279,-0.0221,-0.0211,-0.0202,-0.0153,-0.014,-0.0311,-0.0311,-0.0311,0,0.003,0.0003,-0.0021,-0.0042,-0.0053,-0.0078,-0.0093,-0.0117,-0.0157,-0.014,-0.017,-0.0192,-0.0244,-0.024,-0.0264,-0.0294,-0.025,-0.0278,-0.0218,-0.0208,-0.0198,-0.015,-0.0135,-0.0311,-0.0311,-0.0311,-0.0311,0,0.0002,-0.0016,-0.003,-0.006,-0.0077,-0.0097,-0.0122,-0.0129,-0.0142,-0.0141,-0.0134,-0.0187,-0.0173,-0.0221,-0.0264,-0.0225,-0.0213,-0.0224,-0.0209,-0.0187,-0.014,-0.0124,-0.0311,-0.0311,-0.0311,-0.0311,0,0,-0.0001,-0.004,-0.0042,-0.0033,-0.0082,-0.0082,-0.0107,-0.0101,-0.004,-0.0103,-0.002,-0.0128,-0.0103,-0.0117,-0.0155,-0.0145,-0.009,-0.0162,-0.0159,-0.01,0.0052,0.0023,0.0037,-0.0079,-0.0076,-0.0074,0.0054,0,-0.0009,-0.0028,-0.0055,-0.0056,-0.0059,-0.0072,-0.006,-0.0051,-0.0031,0.0044,0.0006,0.006,-0.0076,-0.0034,-0.0056,-0.0056,-0.0045,-0.0123,0.0012,0.0017,-0.0001,0.0055,0.003,0.014,0.0069,0.0072,0.0074,0,-0.0021,-0.0024,-0.003,0.0006,0.001,0.0018,0.0098,0.0106,0.0184,0.0219,0.0254,0.0262,0.0262,0.0167,0.0164,0.013,0.0093,0.0067,0.0072,0.0065,0.0018,0.0108,0.0171,-0.0033,0.0098,0.0096,0.0095,0,0.0021,0.0006,0.0017,0.0014,0.0035,0.0073,0.0107,0.0179,0.0268,0.0373,0.049,0.0471,0.0539,0.0468,0.0356,0.0297,0.038,0.0305,0.0243,0.024,0.0257,0.0251,0.0156,0.0331,0.0331,0.0331,0.033,0,0.0033,0.0053,0.0057,0.0071,0.0161,0.0156,0.0302,0.0341,0.0487,0.0661,0.0615,0.0768,0.0625,0.0637,0.0483,0.0422,0.0486,0.0284,0.0286,0.0252,0.0244,0.0097,0.0004,0.0335,0.0334,0.0333,0.0333,0,0.0096,0.0063,0.0113,0.0157,0.0181,0.0269,0.0431,0.0579,0.0674,0.0913,0.0971,0.1043,0.1055,0.0889,0.0818,0.0636,0.0458,0.0504,0.0458,0.0451,0.0167,0.0078,0.0092,0.0024,0.0478,0.0478,0.0478,0,0.0132,0.0157,0.0209,0.0278,0.031,0.0438,0.0565,0.0666,0.0841,0.1097,0.1248,0.1331,0.1413,0.1265,0.0965,0.0736,0.0535,0.0555,0.0409,0.0178,0.0081,0.0024,-0.004,0.0432,0.0432,0.0432,0.0432,0,0.0276,0.029,0.0353,0.047,0.0588,0.0725,0.0907,0.1056,0.1233,0.1421,0.1691,0.1777,0.1636,0.1407,0.1054,0.0855,0.0422,0.0544,0.0338,0.0076,-0.0016,-0.009,0.0304,0.043,0.043,0.043,0.0431,0.0431,0.0444,0.0532,0.0629,0.0736,0.0858,0.1045,0.1187,0.1392,0.165,0.1942,0.2,0.2137,0.1751,0.1272,0.0988,0.041,0.044,0.0201,0.0129,0.0104,-0.0019,0.036,0.0453,0.0454,0.0454,0.0454,0.0454,0,0.0712,0.0792,0.091,0.1047,0.1191,0.1202,0.1454,0.1612,0.1899,0.2122,0.2315,0.2188,0.1703,0.1182,0.0425,0.0039,-0.0099,-0.0175,-0.0288,-0.0322,0.0047,-0.0023,-0.0068,-0.0068,-0.0067,-0.0067,-0.0067,-0.0067,0.089,0.106,0.1083,0.1338,0.1416,0.1632,0.1763,0.1966,0.214,0.2387,0.2443,0.2466,0.2009,0.0704,-0.0194,-0.0391,-0.0638,-0.0671,-0.0776,-0.0599,-0.0571,-0.0546,-0.0637,-0.081,-0.0811,-0.1132,-0.1135,-0.1138]}],[{"header":{"parameterUnit":"m.s-1","parameterCategory":2,"la1":30.2991,"la2":30.254,"lo1":-89.0895,"lo2":-89.0444,"dy":0.0017,"dx":0.0017,"nx":28,"ny":28,"refTime":"2024-05-26T03:00:00:Z","depth":"2","parameterNumber":2,"parameterNumberName":"U-component_of_CURRENTS"},"data":[0,0,0,0,0,0,0,0,0,0,0,0,0,0,0,0,0,0,0,0,0,0,0,0,0,0,0,0,0,0,0,0,0,0,0,0,0,0,0,0,0,0,0,0,0,0,0,0,0,0,0,0,0,0,0,0,0,0,0.1244,0.1244,0,0.1268,0.1268,0.1268,0.1271,0.1271,0.1271,0.1271,0.1274,0.1274,0.1275,0,0,0,0,0,0,0,0,0,0,0,0,0,0.1184,0.1185,0.1244,0.1244,0.1245,0.1268,0.1268,0.1269,0.1271,0.1271,0.1271,0.127,0.1274,0.1274,0.1275,0,0,0,0,0,0,0,0,0,0,0,0,0,0.1208,0.1186,0.1244,0.125,0.1251,0.1268,0.1268,0.1269,0.1271,0.1271,0.1271,0.127,0.1274,0.1274,0.1275,0.128,0,0,0.1276,0.1276,0,0,0,0,0,0,0,0,0.1207,0.121,0.1248,0.1249,0.125,0.1268,0.1249,0.1272,0.1271,0.1262,0.1271,0.127,0.1271,0.1272,0.1275,0.128,0.1281,0.1276,0.1276,0.1276,0.1276,0,0,0,0,0,0,0,0.1205,0.1209,0.1252,0.1249,0.125,0.1246,0.1249,0.1253,0.1266,0.1262,0.1263,0.1268,0.1271,0.1275,0.1275,0.1281,0.1276,0.1276,0.1276,0.1276,0.1287,0.1288,0,0,0,0,0,0,0.1207,0.1208,0.1251,0.1253,0.1229,0.1248,0.1251,0.1261,0.1266,0.1267,0.1268,0.1268,0.1274,0.1275,0.1275,0.128,0.1276,0.1276,0.1277,0.1287,0.1287,0.1288,0,0,0,0,0,0,0.1205,0.121,0.125,0.1232,0.1237,0.1249,0.126,0.1262,0.1269,0.1271,0.1271,0.1275,0.1274,0.1275,0.128,0.128,0.1277,0.1277,0.1287,0.1287,0.1287,0.1291,0,0,0,0,0,0,0.1203,0.121,0.1218,0.1232,0.1238,0.1266,0.1261,0.1262,0.1273,0.1273,0.1277,0.1277,0.1274,0.128,0.1281,0.1281,0.1277,0.1287,0.1287,0.1287,0.1291,0.1291,0.1292,0,0,0,0,0,0.1201,0.1216,0.1219,0.1224,0.1249,0.1266,0.1269,0.1276,0.1274,0.1281,0.128,0.1277,0.1281,0.128,0.1281,0.1281,0.1287,0.1287,0.1287,0.1291,0.1291,0.1292,0,0,0,0,0,0,0.1194,0.1218,0.1221,0.1242,0.1255,0.1267,0.1276,0.1279,0.1285,0.1284,0.1281,0.1281,0.1286,0.1285,0.1283,0.1285,0.1283,0.1283,0.1285,0.1285,0.1286,0.1315,0.1277,0,0,0,0,0,0.1196,0.1215,0.1232,0.1249,0.1256,0.1266,0.1274,0.1279,0.1286,0.1289,0.1289,0.1288,0.1287,0.1287,0.1289,0.1292,0.1355,0.1292,0.1292,0.1292,0.1317,0.1434,0.1449,0.1288,0.1288,0.1288,0,0,0.1199,0.1214,0.1225,0.1249,0.1258,0.1265,0.127,0.1287,0.1287,0.1288,0.1289,0.1292,0.1289,0.1291,0.1292,0.129,0.1366,0.1293,0.1293,0.1318,0.1436,0.1452,0.1467,0.1288,0.1288,0.1288,0,0,0.1206,0.1226,0.1238,0.125,0.1269,0.1273,0.1278,0.1292,0.1293,0.13,0.1296,0.1305,0.1302,0.1302,0.13,0.1306,0.1367,0.13,0.1325,0.1438,0.1453,0.1468,0.1552,0.1574,0.1298,0.1298,0.1298,0,0.1205,0.1224,0.1244,0.1254,0.1264,0.1275,0.1282,0.1284,0.1296,0.1312,0.1301,0.1333,0.1309,0.1334,0.132,0.1308,0.1388,0.1321,0.1443,0.1459,0.1473,0.1557,0.1581,0.1299,0.1299,0.1299,0.1298,0,0.1215,0.123,0.124,0.1254,0.1266,0.1279,0.1285,0.1297,0.1301,0.1316,0.1353,0.1345,0.1384,0.1352,0.1329,0.1408,0.1435,0.1435,0.1449,0.1491,0.1574,0.1599,0.1299,0.1299,0.1299,0.1299,0,0,0.1215,0.124,0.1245,0.1256,0.1269,0.1286,0.1288,0.1312,0.1357,0.1357,0.1429,0.1389,0.1433,0.1435,0.1425,0.1482,0.1611,0.1501,0.1507,0.1597,0.1874,0.1824,0.1847,0.1659,0.1663,0.1667,0.1886,0,0.1215,0.1234,0.1245,0.1264,0.1275,0.1292,0.1308,0.1336,0.1372,0.1447,0.1457,0.1519,0.1452,0.1497,0.1547,0.1614,0.1683,0.1552,0.181,0.1817,0.1779,0.1876,0.1672,0.1846,0.1911,0.1915,0.1918,0,0.1221,0.1234,0.1252,0.129,0.13,0.1318,0.1386,0.1406,0.1495,0.1534,0.1611,0.1657,0.1732,0.1683,0.1845,0.1782,0.1834,0.1867,0.1877,0.1855,0.1816,0.1817,0.189,0.1961,0.1957,0.1954,0.1951,0,0.1219,0.1245,0.1263,0.1273,0.1312,0.134,0.1369,0.1445,0.15,0.1629,0.1723,0.1818,0.1918,0.1998,0.2049,0.199,0.2247,0.2179,0.2179,0.2175,0.2063,0.2041,0.2318,0.2318,0.2317,0.2317,0.2316,0,0.1219,0.1234,0.1275,0.1287,0.1333,0.1368,0.1459,0.1494,0.1619,0.1727,0.1798,0.1921,0.2015,0.2155,0.216,0.227,0.2357,0.2224,0.2249,0.2052,0.2028,0.2169,0.2148,0.2325,0.2323,0.2321,0.232,0,0.1217,0.1232,0.1262,0.1314,0.1332,0.1378,0.1488,0.1581,0.1684,0.1845,0.1902,0.2069,0.2244,0.2322,0.2479,0.2436,0.2516,0.2524,0.2269,0.2258,0.2335,0.2312,0.2562,0.2563,0.2563,0.2564,0.2564,0,0.122,0.1237,0.1284,0.1322,0.1351,0.1431,0.1504,0.1592,0.1695,0.1923,0.2009,0.2233,0.2357,0.2567,0.2544,0.26,0.2608,0.2439,0.2256,0.2371,0.2371,0.2347,0.2324,0.2107,0.2104,0.2101,0.2099,0,0.1247,0.1266,0.1303,0.1372,0.1441,0.1501,0.1606,0.1664,0.1809,0.1935,0.2114,0.2232,0.2434,0.2419,0.2501,0.2466,0.2404,0.2382,0.265,0.2056,0.1955,0.1949,0.194,0.2073,0.2076,0.2078,0.2079,0.208,0.1295,0.1323,0.1391,0.1426,0.15,0.1547,0.1562,0.1685,0.1782,0.1885,0.2055,0.2146,0.2252,0.2248,0.2229,0.2189,0.2307,0.2184,0.2188,0.2196,0.2084,0.1987,0.2091,0.2093,0.2096,0.2097,0.2099,0,0.1356,0.1388,0.1445,0.1468,0.149,0.1545,0.1615,0.1602,0.1642,0.1782,0.1855,0.1781,0.1832,0.1944,0.1851,0.186,0.1773,0.1787,0.1668,0.1695,0.1719,0.1577,0.1453,0.1451,0.1449,0.1447,0,0,0.1407,0.144,0.1414,0.1417,0.1443,0.1449,0.1441,0.1438,0.1494,0.1472,0.1501,0.1639,0.1853,0.1612,0.1609,0.1536,0.1579,0.1457,0.1976,0.1861,0.1881,0.1955,0.1769,0,0,0,0,0]},{"header":{"parameterUnit":"m.s-1","parameterCategory":2,"la1":30.2991,"la2":30.254,"lo1":-89.0895,"lo2":-89.0444,"dy":0.0017,"dx":0.0017,"nx":28,"ny":28,"refTime":"2024-05-26T03:00:00:Z","depth":"2","parameterNumber":3,"parameterNumberName":"V-component_of_CURRENTS"},"data":[0,0,0,0,0,0,0,0,0,0,0,0,0,0,0,0,0,0,0,0,0,0,0,0,0,0,0,0,0,0,0,0,0,0,0,0,0,0,0,0,0,0,0,0,0,0,0,0,0,0,0,0,0,0,0,0,0,0,-0.0175,-0.0176,0,-0.0237,-0.0238,-0.0238,-0.0254,-0.0254,-0.0254,-0.0253,-0.032,-0.0322,-0.0324,0,0,0,0,0,0,0,0,0,0,0,0,0,-0.0096,-0.0098,-0.0175,-0.0176,-0.0177,-0.0237,-0.0238,-0.0239,-0.0255,-0.0254,-0.0254,-0.0253,-0.0319,-0.0322,-0.0325,0,0,0,0,0,0,0,0,0,0,0,0,0,-0.0142,-0.0098,-0.0175,-0.0192,-0.0194,-0.0237,-0.0238,-0.0239,-0.0255,-0.0254,-0.0253,-0.0253,-0.0319,-0.0322,-0.0325,-0.0357,0,0,-0.0335,-0.0336,0,0,0,0,0,0,0,0,-0.0139,-0.0145,-0.0189,-0.0191,-0.0193,-0.0237,-0.0234,-0.0278,-0.0255,-0.0232,-0.0253,-0.0253,-0.0293,-0.0299,-0.0312,-0.036,-0.0363,-0.0335,-0.0337,-0.0338,-0.0339,0,0,0,0,0,0,0,-0.0136,-0.0142,-0.02,-0.019,-0.0192,-0.0205,-0.021,-0.0243,-0.0265,-0.0234,-0.0235,-0.0242,-0.0295,-0.0308,-0.0313,-0.0364,-0.0335,-0.0338,-0.034,-0.0341,-0.0422,-0.0423,0,0,0,0,0,0,-0.0128,-0.0139,-0.0198,-0.0202,-0.0164,-0.0207,-0.0213,-0.0224,-0.0265,-0.0271,-0.0242,-0.0242,-0.0303,-0.031,-0.0316,-0.0346,-0.0338,-0.0341,-0.0343,-0.0422,-0.0423,-0.0423,0,0,0,0,0,0,-0.0126,-0.0132,-0.0196,-0.0171,-0.018,-0.0208,-0.0221,-0.0225,-0.0237,-0.0271,-0.0277,-0.0248,-0.0303,-0.0311,-0.0344,-0.0349,-0.0343,-0.0346,-0.0422,-0.0422,-0.0423,-0.0414,0,0,0,0,0,0,-0.0123,-0.0132,-0.0137,-0.0171,-0.0181,-0.0221,-0.0222,-0.0227,-0.0242,-0.0243,-0.0279,-0.0284,-0.0303,-0.0339,-0.0347,-0.0354,-0.0348,-0.0422,-0.0422,-0.0423,-0.0414,-0.0414,-0.0414,0,0,0,0,0,-0.012,-0.0136,-0.0137,-0.0144,-0.0188,-0.0222,-0.0228,-0.0246,-0.0243,-0.0253,-0.0274,-0.0283,-0.0347,-0.0343,-0.0352,-0.0359,-0.0421,-0.0422,-0.0422,-0.0414,-0.0414,-0.0414,0,0,0,0,0,0,-0.0108,-0.014,-0.0142,-0.0166,-0.0189,-0.0224,-0.0238,-0.0245,-0.0271,-0.027,-0.0295,-0.0303,-0.0332,-0.0348,-0.0342,-0.0382,-0.0383,-0.0385,-0.0373,-0.0373,-0.0373,-0.0337,-0.0351,0,0,0,0,0,-0.0106,-0.0125,-0.0153,-0.0172,-0.0183,-0.0207,-0.0222,-0.0234,-0.026,-0.027,-0.0294,-0.0317,-0.0343,-0.0359,-0.0385,-0.0414,-0.0409,-0.0422,-0.0422,-0.0421,-0.0398,-0.0373,-0.0368,-0.0424,-0.0424,-0.0424,0,0,-0.0107,-0.0127,-0.0137,-0.017,-0.0189,-0.0209,-0.0215,-0.0239,-0.0252,-0.0275,-0.03,-0.0322,-0.0351,-0.038,-0.0394,-0.0393,-0.0415,-0.0422,-0.0422,-0.0398,-0.0373,-0.0367,-0.0362,-0.0425,-0.0425,-0.0425,0,0,-0.0121,-0.0135,-0.0153,-0.017,-0.0196,-0.0213,-0.0217,-0.0248,-0.0257,-0.0287,-0.0301,-0.032,-0.0368,-0.0381,-0.0396,-0.0412,-0.0415,-0.0425,-0.0397,-0.0375,-0.0369,-0.0364,-0.0397,-0.0395,-0.0424,-0.0424,-0.0424,0,-0.0118,-0.0141,-0.0163,-0.0182,-0.0189,-0.0211,-0.0223,-0.0244,-0.0281,-0.0269,-0.0292,-0.0321,-0.0364,-0.0368,-0.0384,-0.041,-0.0409,-0.0397,-0.0372,-0.0367,-0.0362,-0.0397,-0.0394,-0.0423,-0.0424,-0.0424,-0.0424,0,-0.0146,-0.0156,-0.0169,-0.0194,-0.0207,-0.0223,-0.0245,-0.0252,-0.0262,-0.0266,-0.0268,-0.0315,-0.0311,-0.0348,-0.0381,-0.0365,-0.0385,-0.0375,-0.0367,-0.0355,-0.0394,-0.0392,-0.0423,-0.0423,-0.0423,-0.0423,0,0,-0.015,-0.018,-0.018,-0.0168,-0.0207,-0.0208,-0.0229,-0.0227,-0.0191,-0.0238,-0.0184,-0.0268,-0.0252,-0.0267,-0.03,-0.0308,-0.0317,-0.0328,-0.0327,-0.0354,-0.0298,-0.0341,-0.0344,-0.0292,-0.029,-0.0289,-0.0358,0,-0.0156,-0.017,-0.0192,-0.0186,-0.0184,-0.0195,-0.0188,-0.0185,-0.0184,-0.014,-0.0169,-0.0142,-0.0232,-0.021,-0.0235,-0.0274,-0.0301,-0.0301,-0.0312,-0.0313,-0.0344,-0.0337,-0.0316,-0.0376,-0.0355,-0.0355,-0.0354,0,-0.0166,-0.0168,-0.0165,-0.013,-0.0126,-0.0118,-0.0066,-0.0063,-0.0024,-0.0014,0.0002,-0.0,-0.0021,-0.0078,-0.0155,-0.0144,-0.0219,-0.0272,-0.0275,-0.0303,-0.0348,-0.0376,-0.0372,-0.035,-0.0351,-0.0351,-0.0351,0,-0.0125,-0.0133,-0.0116,-0.0116,-0.0098,-0.0066,-0.0039,-0.0005,0.004,0.0095,0.0158,0.0124,0.0151,0.006,-0.0075,-0.0096,-0.015,-0.0187,-0.0308,-0.0315,-0.0291,-0.0297,-0.0226,-0.0226,-0.0226,-0.0226,-0.0226,0,-0.0107,-0.0083,-0.0079,-0.0063,0.0008,0.0008,0.0116,0.0121,0.0194,0.028,0.0255,0.0309,0.0197,0.0149,-0.0006,-0.0151,-0.0098,-0.0296,-0.0317,-0.0297,-0.0302,-0.0261,-0.0264,-0.0228,-0.0228,-0.0227,-0.0227,0,-0.0046,-0.0068,-0.0021,0.0013,0.003,0.0101,0.0212,0.0303,0.0342,0.0457,0.0489,0.0473,0.0392,0.0248,0.0103,-0.0045,-0.019,-0.0257,-0.0258,-0.0278,-0.0401,-0.0403,-0.0402,-0.0404,-0.0405,-0.0406,-0.0407,0,-0.0015,0.0008,0.0054,0.0095,0.0121,0.0228,0.0316,0.037,0.0437,0.0542,0.0586,0.0577,0.053,0.0294,0.0062,-0.0192,-0.021,-0.033,-0.0372,-0.0389,-0.041,-0.041,-0.041,-0.0367,-0.0367,-0.0368,-0.0368,0,0.007,0.0087,0.013,0.0199,0.0283,0.0387,0.0482,0.053,0.0606,0.0664,0.0679,0.0661,0.0501,0.0263,-0.0021,-0.0194,-0.029,-0.035,-0.0315,-0.0325,-0.036,-0.038,-0.038,-0.0372,-0.0372,-0.0372,-0.0371,-0.0371,0.0145,0.0187,0.0228,0.0277,0.039,0.046,0.0515,0.0602,0.0655,0.0691,0.0677,0.0668,0.051,0.0125,-0.0112,-0.0333,-0.0355,-0.0448,-0.0444,-0.044,-0.0423,-0.0458,-0.049,-0.049,-0.049,-0.049,-0.049,0,0.019,0.0215,0.0286,0.0301,0.0381,0.046,0.0556,0.0595,0.0597,0.0712,0.0679,0.0529,0.0304,0.0148,-0.0191,-0.0429,-0.043,-0.0485,-0.0429,-0.0425,-0.0421,-0.04,-0.0462,-0.0462,-0.0463,-0.0463,0,0,0.0198,0.0212,0.0185,0.0221,0.0279,0.0378,0.0414,0.0505,0.0595,0.0639,0.0676,0.0629,0.0436,0.0201,-0.0091,-0.0264,-0.0294,-0.0304,-0.0311,-0.0209,-0.0202,-0.0393,-0.0356,0,0,0,0,0]}],[{"header":{"parameterUnit":"m.s-1","parameterCategory":2,"la1":30.2991,"la2":30.254,"lo1":-89.0895,"lo2":-89.0444,"dy":0.0017,"dx":0.0017,"nx":28,"ny":28,"refTime":"2024-05-26T03:00:00:Z","depth":"4","parameterNumber":2,"parameterNumberName":"U-component_of_CURRENTS"},"data":[0,0,0,0,0,0,0,0,0,0,0,0,0,0,0,0,0,0,0,0,0,0,0,0,0,0,0,0,0,0,0,0,0,0,0,0,0,0,0,0,0,0,0,0,0,0,0,0,0,0,0,0,0,0,0,0,0,0,0.0579,0.058,0,0.0625,0.0626,0.0626,0.0679,0.068,0.0681,0.0682,0.0797,0.0799,0.0801,0,0,0,0,0,0,0,0,0,0,0,0,0,0.0531,0.0532,0.0579,0.058,0.0581,0.0625,0.0626,0.0626,0.0679,0.068,0.0681,0.0682,0.0796,0.0799,0.0802,0,0,0,0,0,0,0,0,0,0,0,0,0,0.056,0.0532,0.0579,0.0614,0.0617,0.0625,0.0626,0.0626,0.0678,0.068,0.0681,0.0683,0.0796,0.0799,0.0802,0.0793,0,0,0.0812,0.0813,0,0,0,0,0,0,0,0,0.0558,0.0562,0.0608,0.0611,0.0616,0.0649,0.0651,0.0686,0.0678,0.0653,0.0682,0.0683,0.0754,0.0761,0.0763,0.0798,0.0803,0.0812,0.0814,0.0816,0.0817,0,0,0,0,0,0,0,0.0556,0.056,0.0596,0.0609,0.0613,0.0625,0.0631,0.0657,0.0695,0.0656,0.066,0.0668,0.0757,0.0759,0.0766,0.0805,0.0812,0.0815,0.0817,0.0818,0.0944,0.0946,0,0,0,0,0,0,0.0553,0.0558,0.0594,0.0597,0.0592,0.0625,0.0631,0.0636,0.0693,0.0703,0.0666,0.067,0.0753,0.0762,0.0771,0.0858,0.0816,0.0819,0.0821,0.0943,0.0945,0.0946,0,0,0,0,0,0,0.0552,0.0556,0.0592,0.058,0.0586,0.0624,0.0629,0.0636,0.0667,0.0701,0.0713,0.0694,0.0755,0.0766,0.0828,0.0859,0.082,0.0823,0.0941,0.0943,0.0945,0.0972,0,0,0,0,0,0,0.055,0.0555,0.0563,0.058,0.0587,0.0608,0.0628,0.0636,0.0669,0.0674,0.0728,0.0739,0.0757,0.0823,0.0831,0.0863,0.0826,0.0939,0.0942,0.0945,0.0969,0.0975,0.0979,0,0,0,0,0,0.0548,0.055,0.0563,0.0568,0.0595,0.0608,0.0613,0.0644,0.0669,0.0678,0.073,0.0738,0.0845,0.0827,0.0836,0.087,0.0938,0.0941,0.0944,0.0967,0.0974,0.0979,0,0,0,0,0,0,0.0534,0.0556,0.0571,0.0581,0.06,0.0619,0.0634,0.0655,0.0699,0.0722,0.0755,0.0769,0.083,0.0847,0.0826,0.0914,0.0893,0.0899,0.0907,0.0914,0.0919,0.0917,0.0828,0,0,0,0,0,0.0533,0.0545,0.0565,0.0576,0.0587,0.0616,0.063,0.0653,0.069,0.0712,0.0762,0.0811,0.0843,0.0878,0.0907,0.0959,0.0966,0.0988,0.0993,0.0997,0.1003,0.1044,0.1053,0.0956,0.0956,0.0956,0,0,0.0532,0.0547,0.0554,0.0575,0.0595,0.0616,0.0628,0.0659,0.0695,0.0718,0.0801,0.0827,0.0858,0.0914,0.0944,0.094,0.1026,0.1001,0.1004,0.1008,0.1048,0.1057,0.1066,0.0958,0.0958,0.0958,0,0,0.053,0.0549,0.0558,0.0576,0.0611,0.063,0.0644,0.0689,0.0729,0.0795,0.082,0.0873,0.0939,0.0968,0.0986,0.1037,0.1042,0.105,0.1088,0.1128,0.1136,0.1143,0.115,0.1158,0.1064,0.1064,0.1064,0,0.053,0.0545,0.0563,0.058,0.0604,0.064,0.0663,0.0701,0.077,0.0814,0.0832,0.0935,0.0963,0.1018,0.1039,0.1049,0.1062,0.106,0.1133,0.1141,0.1148,0.1154,0.1162,0.1065,0.1065,0.1065,0.1065,0,0.0532,0.0555,0.0565,0.0602,0.0626,0.0653,0.0704,0.076,0.082,0.0865,0.0951,0.099,0.1053,0.1067,0.1073,0.1136,0.1124,0.1124,0.1115,0.1159,0.1162,0.117,0.1068,0.1067,0.1067,0.1066,0,0,0.0503,0.0556,0.0562,0.0594,0.0645,0.0668,0.0736,0.0805,0.0864,0.0943,0.1011,0.1078,0.111,0.1131,0.1146,0.1185,0.1239,0.1184,0.1185,0.1184,0.1311,0.1252,0.1254,0.1257,0.1259,0.126,0.1288,0,0.0504,0.0541,0.0568,0.0622,0.065,0.0709,0.0766,0.084,0.0913,0.0992,0.105,0.1116,0.113,0.1162,0.1205,0.1227,0.1265,0.1231,0.1275,0.1275,0.1212,0.1264,0.1267,0.1294,0.1296,0.1297,0.1298,0,0.0495,0.0527,0.0574,0.0651,0.0669,0.0721,0.0826,0.0883,0.0988,0.1041,0.1118,0.1154,0.1226,0.1223,0.1305,0.1285,0.1307,0.132,0.1322,0.1264,0.1232,0.1245,0.1312,0.1311,0.131,0.1309,0.1308,0,0.047,0.0534,0.0579,0.0604,0.069,0.0752,0.0819,0.0923,0.0989,0.1086,0.1139,0.1207,0.1266,0.1304,0.1342,0.1335,0.1409,0.14,0.1363,0.1358,0.1388,0.138,0.146,0.146,0.146,0.146,0.146,0,0.0459,0.0496,0.0589,0.0617,0.0697,0.0768,0.0874,0.0938,0.1042,0.1105,0.118,0.1226,0.1297,0.1342,0.1354,0.1382,0.1428,0.1377,0.1372,0.1396,0.1389,0.1392,0.1384,0.1461,0.1461,0.146,0.146,0,0.0431,0.0478,0.0541,0.0649,0.069,0.0766,0.0914,0.0972,0.1083,0.116,0.1192,0.1279,0.134,0.1381,0.1433,0.141,0.1423,0.1418,0.1425,0.1418,0.1337,0.1331,0.1383,0.1382,0.1381,0.1379,0.1378,0,0.0418,0.0445,0.056,0.0609,0.0675,0.0797,0.0857,0.098,0.1029,0.1175,0.1182,0.1293,0.1335,0.1363,0.1406,0.1422,0.1418,0.1401,0.1388,0.1346,0.1335,0.1331,0.1326,0.1376,0.1376,0.1376,0.1375,0,0.0394,0.0442,0.0493,0.0587,0.067,0.0753,0.0858,0.0891,0.1005,0.1109,0.1168,0.1221,0.1291,0.1327,0.1356,0.1361,0.1395,0.1387,0.139,0.1377,0.1337,0.1327,0.1324,0.137,0.1371,0.1372,0.1372,0,0.0376,0.0408,0.0474,0.0554,0.0631,0.068,0.076,0.0829,0.09,0.1045,0.1055,0.1173,0.1263,0.1297,0.1309,0.1324,0.1322,0.1276,0.1285,0.129,0.1251,0.1186,0.118,0,0,0,0,0,0.0363,0.0381,0.0436,0.0509,0.0573,0.0624,0.072,0.079,0.0892,0.0906,0.0992,0.1047,0.113,0.1188,0.1191,0.1271,0.1311,0.1268,0.1258,0.1344,0.135,0.1314,0,0,0,0,0,0,0.0349,0.0393,0.0408,0.0434,0.0473,0.0537,0.0595,0.0675,0.0702,0.082,0.0871,0.098,0.1069,0.1114,0.1166,0.1185,0.116,0.1347,0.1345,0.1341,0.1346,0.135,0.1316,0,0,0,0,0]},{"header":{"parameterUnit":"m.s-1","parameterCategory":2,"la1":30.2991,"la2":30.254,"lo1":-89.0895,"lo2":-89.0444,"dy":0.0017,"dx":0.0017,"nx":28,"ny":28,"refTime":"2024-05-26T03:00:00:Z","depth":"4","parameterNumber":3,"parameterNumberName":"V-component_of_CURRENTS"},"data":[0,0,0,0,0,0,0,0,0,0,0,0,0,0,0,0,0,0,0,0,0,0,0,0,0,0,0,0,0,0,0,0,0,0,0,0,0,0,0,0,0,0,0,0,0,0,0,0,0,0,0,0,0,0,0,0,0,0,0.0113,0.0113,0,0.0127,0.0127,0.0127,0.0081,0.008,0.0078,0.0077,0.0026,0.0026,0.0026,0,0,0,0,0,0,0,0,0,0,0,0,0,0.0019,0.0021,0.0113,0.0113,0.0114,0.0127,0.0127,0.0127,0.0081,0.008,0.0078,0.0076,0.0026,0.0026,0.0026,0,0,0,0,0,0,0,0,0,0,0,0,0,0.0048,0.0022,0.0113,0.0093,0.0091,0.0127,0.0127,0.0127,0.0081,0.0079,0.0077,0.0076,0.0026,0.0026,0.0026,0.0064,0,0,0.0025,0.0025,0,0,0,0,0,0,0,0,0.0047,0.0052,0.0096,0.0094,0.0093,0.0101,0.0075,0.0103,0.0082,0.0084,0.0077,0.0075,0.0047,0.0045,0.0052,0.0062,0.006,0.0025,0.0025,0.0025,0.0025,0,0,0,0,0,0,0,0.0045,0.0051,0.0118,0.0096,0.0094,0.0073,0.0075,0.008,0.0075,0.0084,0.0081,0.0084,0.0045,0.0052,0.005,0.0059,0.0025,0.0025,0.0025,0.0025,0.0015,0.0015,0,0,0,0,0,0,0.0049,0.0049,0.0117,0.0118,0.0065,0.0077,0.0079,0.01,0.0076,0.0071,0.0086,0.0082,0.0054,0.005,0.0048,0.004,0.0025,0.0025,0.0025,0.0015,0.0015,0.0015,0,0,0,0,0,0,0.0047,0.0056,0.0117,0.0083,0.0089,0.0081,0.0104,0.0101,0.0095,0.0078,0.0072,0.0082,0.0052,0.0048,0.0045,0.004,0.0025,0.0025,0.0015,0.0015,0.0015,0.0058,0,0,0,0,0,0,0.0045,0.0055,0.0071,0.0084,0.0092,0.0142,0.0106,0.0103,0.0102,0.0096,0.0073,0.0067,0.005,0.0046,0.0045,0.0039,0.0025,0.0016,0.0015,0.0015,0.0056,0.0059,0.0061,0,0,0,0,0,0.0042,0.0085,0.0072,0.008,0.0114,0.0143,0.0146,0.0131,0.0103,0.0115,0.009,0.0067,0.0042,0.0046,0.0045,0.0039,0.0016,0.0015,0.0015,0.0055,0.0058,0.0061,0,0,0,0,0,0,0.0063,0.0085,0.007,0.012,0.0126,0.0136,0.0151,0.0133,0.0126,0.0112,0.0083,0.0077,0.0069,0.0051,0.0057,0.0032,0.0019,0.0018,0.0049,0.0052,0.0054,0.0022,0.0024,0,0,0,0,0,0.0073,0.0104,0.0114,0.0151,0.0156,0.0148,0.0155,0.0144,0.014,0.0134,0.0111,0.0084,0.0072,0.0059,0.0051,0.005,-0.0,0.0038,0.004,0.0043,0.0014,-0.0075,-0.0084,0.0014,0.0014,0.0014,0,0,0.0094,0.0108,0.0126,0.0156,0.0158,0.0179,0.0148,0.0166,0.0173,0.0132,0.0129,0.0102,0.0076,0.007,0.0062,0.005,-0.0001,0.0042,0.0045,0.0014,-0.0076,-0.0086,-0.0095,0.0014,0.0014,0.0014,0,0,0.0145,0.016,0.0192,0.0201,0.0207,0.0207,0.021,0.0208,0.0195,0.0194,0.0159,0.0124,0.0111,0.0083,0.0069,0.0079,0.0021,0.0073,0.0052,-0.0032,-0.0042,-0.0051,-0.0083,-0.0096,0.0065,0.0065,0.0066,0,0.0163,0.0202,0.0207,0.0232,0.0235,0.0218,0.0238,0.0244,0.0235,0.0202,0.0194,0.0113,0.0113,0.0068,0.0074,0.0083,0.0031,0.005,-0.0031,-0.0041,-0.0052,-0.0083,-0.0098,0.0067,0.0067,0.0067,0.0067,0,0.0226,0.025,0.0273,0.0292,0.0302,0.0322,0.0319,0.0308,0.0276,0.0245,0.018,0.0155,0.0079,0.0092,0.0093,0.0019,0.0009,-0.0009,-0.0039,-0.0059,-0.009,-0.0106,0.007,0.007,0.0069,0.0069,0,0,0.027,0.0307,0.031,0.0301,0.0326,0.0328,0.0346,0.0322,0.0275,0.0246,0.0168,0.0151,0.0073,0.005,0.0026,-0.003,-0.0099,-0.0053,-0.0058,-0.0086,-0.027,-0.0204,-0.0215,-0.0148,-0.0152,-0.0154,-0.0246,0,0.0303,0.0344,0.036,0.0377,0.0385,0.0369,0.037,0.0339,0.0292,0.0219,0.0153,0.0079,0.0077,0.0017,-0.004,-0.0098,-0.0148,-0.0072,-0.0248,-0.0252,-0.0194,-0.0235,-0.0166,-0.0258,-0.0262,-0.0265,-0.0267,0,0.0343,0.0356,0.0386,0.0365,0.0364,0.037,0.0306,0.0298,0.0214,0.0161,0.0055,-0.0002,-0.0095,-0.0091,-0.0238,-0.0201,-0.0239,-0.027,-0.0275,-0.0253,-0.0219,-0.0247,-0.0296,-0.0294,-0.0292,-0.029,-0.0288,0,0.0326,0.0359,0.0369,0.0373,0.0368,0.0347,0.0322,0.0257,0.0212,0.0095,0.0029,-0.0099,-0.0172,-0.0275,-0.0315,-0.0311,-0.0454,-0.0458,-0.043,-0.0423,-0.0472,-0.0463,-0.0565,-0.0565,-0.0565,-0.0565,-0.0565,0,0.0337,0.0335,0.0352,0.0349,0.0311,0.0309,0.0237,0.0191,0.0111,0.006,-0.0034,-0.0095,-0.0229,-0.0303,-0.0357,-0.0436,-0.0501,-0.0454,-0.0463,-0.0442,-0.0429,-0.0481,-0.047,-0.0568,-0.0568,-0.0567,-0.0566,0,0.0302,0.0334,0.0322,0.0313,0.0302,0.0255,0.0193,0.0142,0.0068,0.0001,-0.0037,-0.0133,-0.0231,-0.0318,-0.0449,-0.0474,-0.0555,-0.055,-0.0489,-0.0489,-0.0459,-0.0445,-0.0584,-0.0583,-0.0582,-0.0581,-0.058,0,0.0277,0.028,0.0274,0.0251,0.0242,0.0185,0.0156,0.0107,0.0085,0.0006,-0.0005,-0.0116,-0.0167,-0.031,-0.041,-0.0533,-0.0521,-0.0563,-0.055,-0.0476,-0.0471,-0.0458,-0.0445,-0.0579,-0.0579,-0.0578,-0.0578,0,0.0194,0.0207,0.0189,0.0174,0.0151,0.0137,0.0115,0.0107,0.0089,0.003,0.0019,-0.0061,-0.0149,-0.027,-0.0351,-0.0432,-0.0557,-0.0554,-0.0557,-0.0546,-0.0472,-0.0465,-0.0453,-0.0575,-0.0575,-0.0576,-0.0576,0,0.0096,0.0074,0.0074,0.0078,0.0071,0.0119,0.0101,0.0122,0.0106,0.0086,0.0093,-0.0017,-0.0082,-0.0215,-0.0292,-0.0373,-0.0402,-0.0419,-0.043,-0.0435,-0.0355,-0.0237,-0.0298,0,0,0,0,0,-0.0009,-0.0008,-0.0024,0.0011,0.0041,0.0075,0.01,0.0108,0.014,0.0153,0.013,0.0068,-0.0066,-0.0146,-0.0217,-0.03,-0.0435,-0.0386,-0.0463,-0.0557,-0.0561,-0.0485,0,0,0,0,0,0,-0.0102,-0.0123,-0.005,0.0003,0.0046,0.0095,0.0138,0.0161,0.018,0.0183,0.0111,0.0073,-0.007,-0.0012,-0.0209,-0.0241,-0.0294,-0.0459,-0.046,-0.0555,-0.0558,-0.0561,-0.0485,0,0,0,0,0]}]]